When you browse on this site, cookies collect data to enhance your experience and personalize the content and advertising you see.
Visit our Privacy Policy to learn more. By continuing to use the site, you agree to this use of cookies and data.
  • In Austria
  • List of Countries
  • For 7 days
  • Water Temperature
  • Weather Map
  • News
  • Weather Widgets
  • user-avatar
    Login

    Hourly Weather Tepatepec

    Today, 6 June, Saturday

    Time Temperature Precipitation Wind Pressure Humidity
    00:00 +16°C° 0 mm 1 mps 600 mmHg 93%
    01:00 +14°C° 0 mm 0 mps 599 mmHg 94%
    02:00 +14°C° 0 mm 0 mps 598 mmHg 94%
    03:00 +14°C° 0 mm 0 mps 599 mmHg 94%
    04:00 +13°C° 0 mm 0 mps 599 mmHg 94%
    05:00 +14°C° 0 mm 1 mps 599 mmHg 93%
    06:00 +16°C° 0 mm 1 mps 600 mmHg 81%
    07:00 +18°C° 0 mm 0 mps 601 mmHg 69%
    08:00 +20°C° 0 mm 0 mps 602 mmHg 56%
    09:00 +24°C° 0 mm 1 mps 602 mmHg 49%
    10:00 +25°C° 0 mm 2 mps 603 mmHg 41%
    11:00 +27°C° 0 mm 2 mps 603 mmHg 33%
    12:00 +28°C° 0 mm 3 mps 603 mmHg 32%
    13:00 +28°C° 0 mm 4 mps 602 mmHg 30%
    14:00 +29°C° 0 mm 5 mps 602 mmHg 28%
    15:00 +28°C° 0 mm 5 mps 601 mmHg 35%
    16:00 +27°C° 0 mm 6 mps 601 mmHg 42%
    17:00 +24°C° 0 mm 6 mps 600 mmHg 49%
    18:00 +22°C° 0.2 mm 4 mps 600 mmHg 60%
    19:00 +21°C° 0.2 mm 3 mps 600 mmHg 70%
    20:00 +19°C° 0.2 mm 2 mps 600 mmHg 80%
    21:00 +18°C° 0 mm 2 mps 600 mmHg 83%
    22:00 +19°C° 0 mm 1 mps 600 mmHg 87%
    23:00 +18°C° 0 mm 1 mps 600 mmHg 90%

    Tomorrow, 7 June, Sunday

    Time Temperature Precipitation Wind Pressure Humidity
    00:00 +18°C° 0 mm 1 mps 600 mmHg 89%
    01:00 +15°C° 0 mm 0 mps 599 mmHg 89%
    02:00 +15°C° 0 mm 0 mps 599 mmHg 89%
    03:00 +15°C° 0 mm 0 mps 599 mmHg 86%
    04:00 +15°C° 0 mm 0 mps 599 mmHg 83%
    05:00 +16°C° 0 mm 0 mps 599 mmHg 80%
    06:00 +18°C° 0 mm 0 mps 600 mmHg 70%
    07:00 +19°C° 0 mm 0 mps 601 mmHg 61%
    08:00 +23°C° 0 mm 1 mps 601 mmHg 51%
    09:00 +25°C° 0 mm 1 mps 602 mmHg 46%
    10:00 +27°C° 0 mm 2 mps 602 mmHg 41%
    11:00 +28°C° 0 mm 2 mps 602 mmHg 36%
    12:00 +29°C° 0 mm 3 mps 602 mmHg 36%
    13:00 +29°C° 0 mm 3 mps 602 mmHg 35%
    14:00 +29°C° 0 mm 4 mps 601 mmHg 35%
    15:00 +28°C° 0.2 mm 3 mps 601 mmHg 40%
    16:00 +27°C° 0.2 mm 3 mps 600 mmHg 45%
    17:00 +26°C° 0.2 mm 3 mps 600 mmHg 50%
    18:00 +24°C° 0.8 mm 2 mps 600 mmHg 57%
    19:00 +23°C° 0.8 mm 1 mps 600 mmHg 65%
    20:00 +19°C° 0.8 mm 0 mps 600 mmHg 72%
    21:00 +19°C° 0 mm 0 mps 600 mmHg 74%
    22:00 +18°C° 0 mm 0 mps 600 mmHg 76%
    23:00 +18°C° 0 mm 0 mps 599 mmHg 77%

    Day after tomorrow, 8 June, Monday

    Time Temperature Precipitation Wind Pressure Humidity
    00:00 +17°C° 0 mm 0 mps 599 mmHg 78%
    01:00 +17°C° 0 mm 0 mps 599 mmHg 78%
    02:00 +19°C° 0 mm 1 mps 599 mmHg 78%
    03:00 +18°C° 0 mm 1 mps 599 mmHg 78%
    04:00 +18°C° 0 mm 1 mps 599 mmHg 78%
    05:00 +18°C° 0 mm 1 mps 599 mmHg 79%
    06:00 +20°C° 0 mm 1 mps 600 mmHg 70%
    07:00 +22°C° 0 mm 1 mps 601 mmHg 61%
    08:00 +25°C° 0 mm 2 mps 602 mmHg 52%
    09:00 +26°C° 0 mm 2 mps 602 mmHg 45%
    10:00 +28°C° 0 mm 3 mps 603 mmHg 39%
    11:00 +30°C° 0 mm 3 mps 603 mmHg 33%
    12:00 +30°C° 0 mm 4 mps 603 mmHg 31%
    13:00 +30°C° 0 mm 4 mps 602 mmHg 29%
    14:00 +32°C° 0 mm 4 mps 602 mmHg 27%
    15:00 +30°C° 0 mm 4 mps 602 mmHg 30%
    16:00 +30°C° 0 mm 4 mps 601 mmHg 34%
    17:00 +29°C° 0 mm 3 mps 601 mmHg 37%
    18:00 +27°C° 0.4 mm 3 mps 601 mmHg 48%
    19:00 +25°C° 0.4 mm 2 mps 601 mmHg 60%
    20:00 +22°C° 0.4 mm 1 mps 600 mmHg 71%
    21:00 +22°C° 0.1 mm 1 mps 601 mmHg 71%
    22:00 +21°C° 0.1 mm 1 mps 601 mmHg 72%
    23:00 +21°C° 0.1 mm 1 mps 601 mmHg 72%

    9 June, Tuesday

    Time Temperature Precipitation Wind Pressure Humidity
    00:00 +20°C° 0 mm 1 mps 600 mmHg 73%
    01:00 +20°C° 0 mm 1 mps 600 mmHg 74%
    02:00 +18°C° 0 mm 0 mps 600 mmHg 75%
    03:00 +19°C° 0 mm 1 mps 600 mmHg 75%
    04:00 +19°C° 0 mm 1 mps 600 mmHg 76%
    05:00 +18°C° 0 mm 1 mps 600 mmHg 77%
    06:00 +21°C° 0 mm 1 mps 601 mmHg 68%
    07:00 +23°C° 0 mm 1 mps 602 mmHg 59%
    08:00 +25°C° 0 mm 1 mps 603 mmHg 50%
    09:00 +27°C° 0 mm 2 mps 603 mmHg 41%
    10:00 +29°C° 0 mm 3 mps 604 mmHg 33%
    11:00 +32°C° 0 mm 4 mps 604 mmHg 24%
    12:00 +32°C° 0 mm 5 mps 604 mmHg 23%
    13:00 +33°C° 0 mm 6 mps 604 mmHg 21%
    14:00 +33°C° 0 mm 7 mps 603 mmHg 20%
    15:00 +32°C° 0 mm 7 mps 603 mmHg 23%
    16:00 +30°C° 0 mm 7 mps 602 mmHg 26%
    17:00 +29°C° 0 mm 7 mps 601 mmHg 29%
    18:00 +26°C° 0 mm 5 mps 601 mmHg 38%
    19:00 +24°C° 0 mm 3 mps 601 mmHg 47%
    20:00 +21°C° 0 mm 2 mps 601 mmHg 56%
    21:00 +21°C° 0 mm 1 mps 601 mmHg 63%
    22:00 +20°C° 0 mm 1 mps 601 mmHg 70%
    23:00 +19°C° 0 mm 1 mps 601 mmHg 77%

    10 June, Wednesday

    Time Temperature Precipitation Wind Pressure Humidity
    00:00 +19°C° 0 mm 1 mps 601 mmHg 80%
    01:00 +19°C° 0 mm 1 mps 601 mmHg 83%
    02:00 +16°C° 0 mm 0 mps 600 mmHg 86%
    03:00 +16°C° 0 mm 0 mps 600 mmHg 87%
    04:00 +15°C° 0 mm 0 mps 600 mmHg 88%
    05:00 +15°C° 0 mm 0 mps 600 mmHg 89%
    06:00 +19°C° 0 mm 1 mps 601 mmHg 77%
    07:00 +20°C° 0 mm 2 mps 602 mmHg 65%
    08:00 +23°C° 0 mm 2 mps 603 mmHg 53%
    09:00 +24°C° 0 mm 3 mps 604 mmHg 46%
    10:00 +26°C° 0 mm 4 mps 604 mmHg 39%
    11:00 +27°C° 0 mm 5 mps 604 mmHg 32%
    12:00 +27°C° 0 mm 6 mps 604 mmHg 35%
    13:00 +27°C° 0 mm 7 mps 604 mmHg 37%
    14:00 +27°C° 0 mm 8 mps 603 mmHg 40%
    15:00 +26°C° 0 mm 8 mps 603 mmHg 45%
    16:00 +24°C° 0 mm 8 mps 602 mmHg 51%
    17:00 +22°C° 0 mm 8 mps 602 mmHg 57%
    18:00 +21°C° 0 mm 6 mps 602 mmHg 64%
    19:00 +20°C° 0 mm 4 mps 602 mmHg 72%
    20:00 +18°C° 0 mm 3 mps 602 mmHg 79%
    21:00 +18°C° 0 mm 2 mps 602 mmHg 83%
    22:00 +17°C° 0 mm 2 mps 602 mmHg 87%
    23:00 +18°C° 0 mm 1 mps 602 mmHg 90%

    11 June, Thursday

    Time Temperature Precipitation Wind Pressure Humidity
    00:00 +16°C° 0 mm 1 mps 602 mmHg 92%
    01:00 +16°C° 0 mm 1 mps 601 mmHg 93%
    02:00 +15°C° 0 mm 1 mps 601 mmHg 94%
    03:00 +15°C° 0 mm 1 mps 601 mmHg 95%
    04:00 +15°C° 0 mm 1 mps 601 mmHg 95%
    05:00 +14°C° 0 mm 1 mps 601 mmHg 95%
    06:00 +16°C° 0 mm 1 mps 602 mmHg 86%
    07:00 +18°C° 0 mm 1 mps 603 mmHg 77%
    08:00 +19°C° 0 mm 2 mps 603 mmHg 68%
    09:00 +21°C° 0 mm 3 mps 604 mmHg 60%
    10:00 +22°C° 0 mm 4 mps 604 mmHg 53%
    11:00 +25°C° 0 mm 5 mps 604 mmHg 46%
    12:00 +24°C° 0 mm 6 mps 604 mmHg 47%
    13:00 +24°C° 0 mm 6 mps 604 mmHg 48%
    14:00 +24°C° 0 mm 7 mps 603 mmHg 49%
    15:00 +23°C° 0 mm 7 mps 603 mmHg 53%
    16:00 +22°C° 0 mm 7 mps 602 mmHg 58%
    17:00 +21°C° 0 mm 6 mps 602 mmHg 62%
    18:00 +20°C° 0 mm 5 mps 602 mmHg 69%
    19:00 +18°C° 0 mm 3 mps 602 mmHg 75%
    20:00 +17°C° 0 mm 2 mps 602 mmHg 81%
    21:00 +17°C° 0 mm 2 mps 602 mmHg 85%
    22:00 +16°C° 0 mm 1 mps 602 mmHg 88%
    23:00 +16°C° 0 mm 1 mps 602 mmHg 92%
    Show more